ACA638 CYNA-CYQY

Flight info

Callsign ACA638
Flight time 0h 50m
Altitude 33000
Route YNA DCT UMETI
Aircraft A20N/M-SDE2E3FGHIRWXY/LB1

Departure

Time 2026-05-04 20:04
Airport Natashquan Airport (CYNA)

Arrival

Time 2026-05-04 20:55
Airport Sydney / J.A. Douglas McCurdy Airport (CYQY)
Time Latitude Longitude Altitude Speed Heading
2026-05-04 19:57 50.18929 -61.78963 24 ft 0 kts 299°
2026-05-04 20:00 50.18929 -61.78962 43 ft 1 kts 299°
2026-05-04 20:00 50.18931 -61.78958 43 ft 3 kts 328°
2026-05-04 20:01 50.18948 -61.78949 42 ft 5 kts 19°
2026-05-04 20:01 50.18992 -61.78907 44 ft 7 kts 66°
2026-05-04 20:01 50.18986 -61.78824 44 ft 8 kts 123°
2026-05-04 20:01 50.18948 -61.78709 43 ft 16 kts 118°
2026-05-04 20:02 50.18886 -61.78528 44 ft 22 kts 117°
2026-05-04 20:02 50.18833 -61.78295 46 ft 25 kts 97°
2026-05-04 20:02 50.18794 -61.78108 46 ft 7 kts 128°
2026-05-04 20:02 50.18755 -61.78083 48 ft 1 kts 202°
2026-05-04 20:03 50.18750 -61.78102 48 ft 1 kts 262°
2026-05-04 20:03 50.18750 -61.78124 48 ft 5 kts 270°
2026-05-04 20:03 50.18754 -61.78151 48 ft 0 kts 293°
2026-05-04 20:04 50.18843 -61.78423 45 ft 80 kts 297°
2026-05-04 20:04 50.19266 -61.79640 98 ft 165 kts 299°
2026-05-04 20:04 50.19855 -61.81359 838 ft 196 kts 297°
2026-05-04 20:04 50.20543 -61.83435 1812 ft 233 kts 297°
2026-05-04 20:05 50.21305 -61.85814 2926 ft 261 kts 297°
2026-05-04 20:05 50.22142 -61.88494 4035 ft 290 kts 295°
2026-05-04 20:05 50.23083 -61.91499 4623 ft 328 kts 298°
2026-05-04 20:05 50.24275 -61.94722 5458 ft 347 kts 305°
2026-05-04 20:06 50.25558 -61.97839 6380 ft 327 kts 295°
2026-05-04 20:06 50.26068 -62.01151 6530 ft 307 kts 274°
2026-05-04 20:06 50.25639 -62.04353 6893 ft 299 kts 249°
2026-05-04 20:06 50.24440 -62.06862 7063 ft 286 kts 225°
2026-05-04 20:07 50.22647 -62.08243 7414 ft 295 kts 197°
2026-05-04 20:07 50.20568 -62.08196 8306 ft 308 kts 169°
2026-05-04 20:07 50.18605 -62.06770 9240 ft 314 kts 144°
2026-05-04 20:07 50.17125 -62.04259 9670 ft 317 kts 119°
2026-05-04 20:08 50.16399 -62.01098 9905 ft 314 kts 95°
2026-05-04 20:08 50.16136 -61.97607 10052 ft 343 kts 93°
2026-05-04 20:08 50.15879 -61.93778 10064 ft 358 kts 93°
2026-05-04 20:08 50.15622 -61.89901 10091 ft 361 kts 93°
2026-05-04 20:09 50.15452 -61.87312 10331 ft 364 kts 93°
2026-05-04 20:09 50.15208 -61.83375 11474 ft 364 kts 93°
2026-05-04 20:09 50.14772 -61.79455 12766 ft 372 kts 107°
2026-05-04 20:09 50.13692 -61.75755 13856 ft 379 kts 116°
2026-05-04 20:10 50.12396 -61.72146 14872 ft 385 kts 127°
2026-05-04 20:10 50.10476 -61.69232 15916 ft 388 kts 147°
2026-05-04 20:10 50.08145 -61.67066 16968 ft 393 kts 151°
2026-05-04 20:10 50.05834 -61.64708 17956 ft 399 kts 149°
2026-05-04 20:11 50.03477 -61.62410 18890 ft 402 kts 151°
2026-05-04 20:11 50.01029 -61.60238 19814 ft 407 kts 153°
2026-05-04 20:11 49.98560 -61.58048 20727 ft 412 kts 152°
2026-05-04 20:11 49.96086 -61.55729 21641 ft 418 kts 150°
2026-05-04 20:12 49.93603 -61.53287 22393 ft 426 kts 150°
2026-05-04 20:12 49.91104 -61.50766 23225 ft 431 kts 149°
2026-05-04 20:12 49.88587 -61.48200 23978 ft 434 kts 149°
2026-05-04 20:12 49.86048 -61.45608 24694 ft 438 kts 148°
2026-05-04 20:13 49.83493 -61.43002 25416 ft 443 kts 149°
2026-05-04 20:13 49.80895 -61.40360 26020 ft 450 kts 148°
2026-05-04 20:13 49.78257 -61.37683 26643 ft 455 kts 148°
2026-05-04 20:13 49.75636 -61.35029 27295 ft 458 kts 148°
2026-05-04 20:14 49.72970 -61.32333 28102 ft 457 kts 148°
2026-05-04 20:14 49.70291 -61.29625 28596 ft 464 kts 148°
2026-05-04 20:14 49.67562 -61.26869 28915 ft 474 kts 148°
2026-05-04 20:14 49.64787 -61.24074 29485 ft 477 kts 148°
2026-05-04 20:15 49.62010 -61.21278 30096 ft 476 kts 148°
2026-05-04 20:15 49.59239 -61.18490 30802 ft 474 kts 148°
2026-05-04 20:15 49.56480 -61.15717 31427 ft 474 kts 149°
2026-05-04 20:15 49.53709 -61.12940 31986 ft 472 kts 149°
2026-05-04 20:16 49.50972 -61.10197 32238 ft 466 kts 148°
2026-05-04 20:16 49.45524 -61.04748 32317 ft 467 kts 150°
2026-05-04 20:17 49.40110 -60.99355 32328 ft 466 kts 149°
2026-05-04 20:17 49.34665 -60.93941 32328 ft 467 kts 150°
2026-05-04 20:18 49.29210 -60.88534 32328 ft 466 kts 149°
2026-05-04 20:18 49.23760 -60.83153 32334 ft 466 kts 150°
2026-05-04 20:19 49.18305 -60.77778 32328 ft 466 kts 149°
2026-05-04 20:19 49.12849 -60.72410 32340 ft 466 kts 149°
2026-05-04 20:20 49.07413 -60.67077 32344 ft 467 kts 150°
2026-05-04 20:20 49.01948 -60.61731 32347 ft 467 kts 150°
2026-05-04 20:21 48.96470 -60.56386 32361 ft 467 kts 150°
2026-05-04 20:21 48.88272 -60.48417 32368 ft 468 kts 150°
2026-05-04 20:22 48.82768 -60.43082 32374 ft 472 kts 150°
2026-05-04 20:22 48.77235 -60.37735 32379 ft 472 kts 151°
2026-05-04 20:23 48.71707 -60.32404 32386 ft 470 kts 150°
2026-05-04 20:23 48.66200 -60.27114 32387 ft 470 kts 151°
2026-05-04 20:24 48.60659 -60.21800 32396 ft 470 kts 150°
2026-05-04 20:24 48.55132 -60.16515 32403 ft 470 kts 151°
2026-05-04 20:25 48.49589 -60.11226 32413 ft 472 kts 152°
2026-05-04 20:25 48.44080 -60.05985 32418 ft 470 kts 152°
2026-05-04 20:26 48.38544 -60.00732 32425 ft 470 kts 152°
2026-05-04 20:26 48.33000 -59.95487 32424 ft 470 kts 152°
2026-05-04 20:27 48.27453 -59.90252 32431 ft 471 kts 152°
2026-05-04 20:27 48.21896 -59.85020 32436 ft 471 kts 152°
2026-05-04 20:28 48.16344 -59.79802 32447 ft 471 kts 152°
2026-05-04 20:28 48.10820 -59.74630 32457 ft 472 kts 152°
2026-05-04 20:29 48.05254 -59.69431 32445 ft 472 kts 152°
2026-05-04 20:29 47.99676 -59.64234 32473 ft 472 kts 152°
2026-05-04 20:30 47.94090 -59.59042 32483 ft 473 kts 152°
2026-05-04 20:30 47.88502 -59.53863 32497 ft 473 kts 152°
2026-05-04 20:31 47.82920 -59.48697 32180 ft 469 kts 153°
2026-05-04 20:31 47.80151 -59.46141 31418 ft 469 kts 153°
2026-05-04 20:31 47.77383 -59.43589 30593 ft 468 kts 153°
2026-05-04 20:32 47.74618 -59.41044 29743 ft 467 kts 153°
2026-05-04 20:32 47.71873 -59.38518 28889 ft 462 kts 153°
2026-05-04 20:32 47.69153 -59.36018 28044 ft 456 kts 154°
2026-05-04 20:32 47.66468 -59.33554 27206 ft 451 kts 154°
2026-05-04 20:33 47.63840 -59.31146 26473 ft 446 kts 154°
2026-05-04 20:33 47.61140 -59.29000 25915 ft 434 kts 165°
2026-05-04 20:33 47.58274 -59.27899 25618 ft 422 kts 180°
2026-05-04 20:33 47.55375 -59.27883 25521 ft 411 kts 194°
2026-05-04 20:34 47.52658 -59.28838 25269 ft 396 kts 206°
2026-05-04 20:34 47.50087 -59.30315 24876 ft 394 kts 207°
2026-05-04 20:34 47.47545 -59.31788 24475 ft 392 kts 207°
2026-05-04 20:34 47.45011 -59.33249 24062 ft 390 kts 207°
2026-05-04 20:35 47.42488 -59.34697 23624 ft 387 kts 207°
2026-05-04 20:35 47.39981 -59.36131 23157 ft 384 kts 207°
2026-05-04 20:35 47.37498 -59.37548 22599 ft 381 kts 207°
2026-05-04 20:35 47.35033 -59.38952 22063 ft 377 kts 208°
2026-05-04 20:36 47.32629 -59.40320 21497 ft 374 kts 207°
2026-05-04 20:36 47.30213 -59.41695 20966 ft 371 kts 207°
2026-05-04 20:36 47.27814 -59.43058 20447 ft 368 kts 207°
2026-05-04 20:36 47.25437 -59.44406 19915 ft 364 kts 207°
2026-05-04 20:37 47.23082 -59.45740 19236 ft 360 kts 208°
2026-05-04 20:37 47.20755 -59.47057 18542 ft 357 kts 208°
2026-05-04 20:37 47.18449 -59.48362 17932 ft 352 kts 208°
2026-05-04 20:37 47.16160 -59.49658 17363 ft 352 kts 208°
2026-05-04 20:38 47.13881 -59.50948 16794 ft 349 kts 208°
2026-05-04 20:38 47.11626 -59.52218 16203 ft 346 kts 208°
2026-05-04 20:38 47.09414 -59.53466 15661 ft 344 kts 208°
2026-05-04 20:38 47.07195 -59.54716 15123 ft 340 kts 208°
2026-05-04 20:39 47.04990 -59.55958 14594 ft 338 kts 208°
2026-05-04 20:39 47.02803 -59.57188 14072 ft 336 kts 208°
2026-05-04 20:39 47.00632 -59.58409 13563 ft 333 kts 208°
2026-05-04 20:39 46.98472 -59.59621 13182 ft 331 kts 208°
2026-05-04 20:40 46.96330 -59.60824 12892 ft 330 kts 208°
2026-05-04 20:40 46.94177 -59.62032 12592 ft 329 kts 208°
2026-05-04 20:40 46.92044 -59.63226 12300 ft 328 kts 208°
2026-05-04 20:40 46.89920 -59.64414 12011 ft 326 kts 208°
2026-05-04 20:41 46.87808 -59.65594 11663 ft 323 kts 208°
2026-05-04 20:41 46.85718 -59.66760 11202 ft 320 kts 208°
2026-05-04 20:41 46.83628 -59.67928 11019 ft 322 kts 208°
2026-05-04 20:41 46.81535 -59.69097 10991 ft 322 kts 208°
2026-05-04 20:42 46.79451 -59.70258 10824 ft 319 kts 208°
2026-05-04 20:42 46.77384 -59.71407 10386 ft 316 kts 208°
2026-05-04 20:42 46.75380 -59.72512 10219 ft 300 kts 209°
2026-05-04 20:42 46.73482 -59.73554 10084 ft 283 kts 209°
2026-05-04 20:43 46.71707 -59.74532 9840 ft 272 kts 210°
2026-05-04 20:43 46.69951 -59.75512 9390 ft 269 kts 210°
2026-05-04 20:43 46.68206 -59.76489 8935 ft 266 kts 210°
2026-05-04 20:43 46.66481 -59.77452 8597 ft 267 kts 210°
2026-05-04 20:44 46.64751 -59.78416 8275 ft 264 kts 210°
2026-05-04 20:44 46.63039 -59.79365 7966 ft 263 kts 210°
2026-05-04 20:44 46.61334 -59.80308 7681 ft 262 kts 210°
2026-05-04 20:44 46.59633 -59.81248 7398 ft 260 kts 210°
2026-05-04 20:45 46.57945 -59.82181 7115 ft 258 kts 210°
2026-05-04 20:45 46.56263 -59.83109 6836 ft 257 kts 210°
2026-05-04 20:45 46.54595 -59.84029 6568 ft 257 kts 210°
2026-05-04 20:45 46.52937 -59.84943 6293 ft 254 kts 210°
2026-05-04 20:46 46.51279 -59.85859 6003 ft 253 kts 210°
2026-05-04 20:46 46.49662 -59.86747 5715 ft 252 kts 210°
2026-05-04 20:46 46.48028 -59.87645 5425 ft 249 kts 210°
2026-05-04 20:46 46.46408 -59.88534 5154 ft 250 kts 211°
2026-05-04 20:47 46.44796 -59.89419 4892 ft 246 kts 211°
2026-05-04 20:47 46.43197 -59.90297 4635 ft 245 kts 211°
2026-05-04 20:47 46.41601 -59.91173 4378 ft 244 kts 211°
2026-05-04 20:47 46.40022 -59.92040 4111 ft 243 kts 211°
2026-05-04 20:48 46.38447 -59.92906 3841 ft 241 kts 211°
2026-05-04 20:48 46.36873 -59.93772 3526 ft 242 kts 211°
2026-05-04 20:48 46.35228 -59.94379 3173 ft 254 kts 192°
2026-05-04 20:48 46.33448 -59.93838 2771 ft 274 kts 164°
2026-05-04 20:49 46.31867 -59.92182 2337 ft 285 kts 145°
2026-05-04 20:49 46.30465 -59.90169 2075 ft 281 kts 141°
2026-05-04 20:49 46.28937 -59.88598 1921 ft 257 kts 167°
2026-05-04 20:49 46.27290 -59.88272 1807 ft 226 kts 197°
2026-05-04 20:50 46.25980 -59.89111 1677 ft 190 kts 228°
2026-05-04 20:50 46.25214 -59.90416 1577 ft 151 kts 240°
2026-05-04 20:50 46.24708 -59.91530 1462 ft 115 kts 243°
2026-05-04 20:50 46.24293 -59.92451 1390 ft 109 kts 242°
2026-05-04 20:51 46.23850 -59.93328 1353 ft 108 kts 239°
2026-05-04 20:51 46.23366 -59.94168 1354 ft 109 kts 237°
2026-05-04 20:51 46.22853 -59.94978 1351 ft 109 kts 235°
2026-05-04 20:51 46.22325 -59.95773 1347 ft 110 kts 234°
2026-05-04 20:52 46.21789 -59.96566 1351 ft 110 kts 234°
2026-05-04 20:52 46.21257 -59.97348 1344 ft 109 kts 234°
2026-05-04 20:52 46.20725 -59.98131 1278 ft 110 kts 234°
2026-05-04 20:52 46.20192 -59.98932 1185 ft 111 kts 233°
2026-05-04 20:53 46.19647 -59.99747 1063 ft 114 kts 234°
2026-05-04 20:53 46.19102 -60.00555 998 ft 110 kts 233°
2026-05-04 20:53 46.18539 -60.01379 751 ft 113 kts 233°
2026-05-04 20:53 46.18018 -60.02131 572 ft 105 kts 234°
2026-05-04 20:54 46.17463 -60.02969 461 ft 118 kts 231°
2026-05-04 20:54 46.16930 -60.03738 315 ft 95 kts 237°
2026-05-04 20:54 46.16509 -60.04368 225 ft 79 kts 239°
2026-05-04 20:54 46.16184 -60.04882 204 ft 53 kts 226°
2026-05-04 20:55 46.15992 -60.05158 195 ft 34 kts 224°
2026-05-04 20:55 46.15854 -60.05369 202 ft 24 kts 226°
2026-05-04 20:55 46.15804 -60.05446 200 ft 1 kts 229°
2026-05-04 20:55 46.15790 -60.05468 207 ft 4 kts 229°
2026-05-04 20:56 46.15774 -60.05481 196 ft 1 kts 164°
2026-05-04 20:56 46.15773 -60.05477 196 ft 0 kts 131°
2026-05-04 20:56 46.15779 -60.05426 196 ft 11 kts 65°
2026-05-04 20:56 46.15848 -60.05374 195 ft 15 kts 52°
2026-05-04 20:57 46.15942 -60.05241 200 ft 23 kts 44°
2026-05-04 20:57 46.16068 -60.05052 200 ft 29 kts 44°
2026-05-04 20:57 46.16203 -60.04852 203 ft 21 kts 46°
2026-05-04 20:57 46.16311 -60.04758 204 ft 11 kts 327°
2026-05-04 20:58 46.16347 -60.04828 207 ft 7 kts 292°
2026-05-04 20:58 46.16367 -60.04897 206 ft 8 kts 293°
2026-05-04 20:58 46.16399 -60.04960 199 ft 8 kts 333°
2026-05-04 20:58 46.16453 -60.04927 199 ft 11 kts 46°
2026-05-04 20:59 46.16523 -60.04822 203 ft 16 kts 47°
2026-05-04 20:59 46.16581 -60.04734 204 ft 2 kts 40°
2026-05-04 20:59 46.16601 -60.04733 207 ft 0 kts 337°
2026-05-04 20:59 46.16619 -60.04743 202 ft 3 kts 348°
2026-05-04 21:00 46.16640 -60.04745 197 ft 2 kts 358°
2026-05-04 21:00 46.16645 -60.04745 197 ft 0 kts 356°
2026-05-04 21:00 46.16648 -60.04745 206 ft 0 kts 356°